EW2001 Weather Reports


Display with metric or nautical units.
time (UTC)temp
F
wind
direction
speed
MPH
gust
MPH
rain 1hr
in
rain 24hr
in
rain mn
in
humidity
%
barometer
mb
20260506204556 72 228 1.0 8.0 0.00 0.00 0.00 37 1014.6
20260506203049 72 130 2.0 8.0 0.00 0.00 0.00 36 1014.7
20260506201556 70 97 4.0 6.0 0.00 0.00 0.00 38 1014.9
20260506200039 68 121 3.0 9.0 0.00 0.00 0.00 41 1015.1
20260506194543 67 108 6.0 8.0 0.00 0.00 0.00 39 1015.3
20260506193031 65 92 4.0 8.0 0.00 0.00 0.00 41 1015.6
20260506191527 63 80 3.0 8.0 0.00 0.00 0.00 42 1016.0
20260506190024 62 89 3.0 6.0 0.00 0.00 0.00 42 1016.3
20260506184522 61 82 4.0 7.0 0.00 0.00 0.00 43 1016.5
20260506183029 60 98 4.0 9.0 0.00 0.00 0.00 46 1016.7
20260506181518 59 58 4.0 9.0 0.00 0.00 0.00 44 1016.7
20260506180017 59 71 4.0 7.0 0.00 0.00 0.00 42 1016.8
20260506174515 59 96 2.0 6.0 0.00 0.00 0.00 40 1017.0
20260506173012 58 113 3.0 7.0 0.00 0.00 0.00 42 1017.1
20260506171515 58 98 1.0 4.0 0.00 0.00 0.00 47 1017.3
20260506170011 56 61 0.0 5.0 0.00 0.00 0.00 47 1017.5
20260506164510 56 100 2.0 7.0 0.00 0.00 0.00 48 1017.7
20260506163011 55 65 3.0 6.0 0.00 0.00 0.00 49 1017.8
20260506161509 56 92 4.0 8.0 0.00 0.00 0.00 52 1017.7
20260506160008 56 96 4.0 7.0 0.00 0.00 0.00 50 1017.9
20260506154507 55 83 4.0 9.0 0.00 0.00 0.00 51 1017.8
20260506153010 55 99 3.0 8.0 0.00 0.00 0.00 47 1017.9
20260506151506 55 8 1.0 5.0 0.00 0.00 0.00 50 1017.9
20260506150005 53 315 0.0 4.0 0.00 0.00 0.00 53 1018.1
20260506144505 53 60 2.0 6.0 0.00 0.00 0.00 53 1018.1
20260506143007 52 46 1.0 9.0 0.00 0.00 0.00 57 1018.0
20260506141508 50 88 0.0 7.0 0.00 0.00 0.00 63 1018.1
20260506140004 48 85 3.0 7.0 0.00 0.00 0.00 66 1018.1
20260506134502 48 96 3.0 8.0 0.00 0.00 0.00 66 1018.1
20260506133000 47 42 4.0 9.0 0.00 0.00 0.00 69 1018.1
20260506131559 48 71 2.0 7.0 0.00 0.00 0.00 69 1017.9
20260506124556 46 78 2.0 5.0 0.00 0.00 0.00 69 1017.7
20260506123053 46 18 2.0 6.0 0.00 0.00 0.00 67 1017.6
20260506121553 46 65 0.0 6.0 0.00 0.00 0.00 66 1017.4
20260506120046 46 67 1.0 7.0 0.00 0.00 0.00 65 1017.4
20260506114544 47 44 1.0 7.0 0.00 0.00 0.00 65 1017.3
20260506113042 47 57 3.0 7.0 0.00 0.00 0.00 64 1017.4
20260506111539 49 30 4.0 7.0 0.00 0.00 0.00 60 1017.4
20260506110035 49 66 3.0 6.0 0.00 0.00 0.00 58 1017.3
20260506104531 50 51 3.0 7.0 0.00 0.00 0.00 54 1017.2
20260506103029 52 56 4.0 8.0 0.00 0.00 0.00 52 1017.2
20260506101524 53 53 5.0 10.0 0.00 0.00 0.00 47 1017.1
20260506100021 52 52 2.0 6.0 0.00 0.00 0.00 50 1017.0
20260506094520 53 346 3.0 7.0 0.00 0.00 0.00 51 1017.0
20260506093017 54 53 3.0 6.0 0.00 0.00 0.00 49 1017.0
20260506091516 55 338 3.0 8.0 0.00 0.00 0.00 45 1017.1
20260506090017 55 345 3.0 10.0 0.00 0.00 0.00 46 1016.9
20260506084508 55 354 2.0 9.0 0.00 0.00 0.00 48 1016.8
20260506083006 56 23 3.0 12.0 0.00 0.00 0.00 49 1016.8
20260506081503 58 48 1.0 9.0 0.00 0.00 0.00 38 1016.7
20260506073102 58 127 3.0 7.0 0.00 0.00 0.00 37 1016.5
20260506071556 58 70 1.0 7.0 0.00 0.00 0.00 38 1016.2
20260506061559 54 305 2.0 3.0 0.00 0.00 0.00 53 1015.4
20260506050107 57 1 4.0 9.0 0.00 0.00 0.00 54 1014.7
20260506044551 55 309 0.0 4.0 0.00 0.00 0.00 58 1014.6
20260506043046 56 47 0.0 1.0 0.00 0.00 0.00 59 1014.5
20260506041545 57 47 0.0 0.0 0.00 0.00 0.00 56 1014.3
20260506040046 58 47 0.0 0.0 0.00 0.00 0.00 53 1014.1
20260506034543 60 47 0.0 0.0 0.00 0.00 0.00 49 1014.0
20260506033044 61 48 0.0 0.0 0.00 0.00 0.00 45 1013.7
20260506031548 62 46 0.0 0.0 0.00 0.00 0.00 45 1013.5
20260506030042 64 46 0.0 0.0 0.00 0.00 0.00 43 1013.4
20260506024546 66 46 0.0 1.0 0.00 0.00 0.00 39 1013.3
20260506023037 68 154 0.0 2.0 0.00 0.00 0.00 34 1013.1
20260506021547 70 154 0.0 2.0 0.00 0.00 0.00 31 1013.1
20260506020036 72 167 0.0 0.0 0.00 0.00 0.00 24 1013.1
20260506014536 72 162 0.0 2.0 0.00 0.00 0.00 24 1013.0
20260506013035 71 70 0.0 5.0 0.00 0.00 0.00 25 1013.1
20260506011536 73 174 0.0 3.0 0.00 0.00 0.00 24 1013.2
20260506010030 71 158 1.0 4.0 0.00 0.00 0.00 24 1013.2
20260506004530 71 153 3.0 6.0 0.00 0.00 0.00 24 1013.3
20260506003028 71 154 3.0 6.0 0.00 0.00 0.00 25 1013.4
20260506001526 71 184 2.0 4.0 0.00 0.00 0.00 25 1013.5
20260506000023 71 45 1.0 4.0 0.00 0.00 0.00 24 1013.7
20260505234622 70 71 5.0 9.0 0.00 0.00 0.00 26 1013.8
20260505233020 70 117 3.0 6.0 0.00 0.00 0.00 25 1014.0
20260505231522 69 77 3.0 10.0 0.00 0.00 0.00 25 1014.3
20260505230018 69 113 2.0 7.0 0.00 0.00 0.00 25 1014.4
20260505224515 69 90 5.0 13.0 0.00 0.00 0.00 26 1014.6
20260505223013 69 131 7.0 14.0 0.00 0.00 0.00 27 1014.7
20260505221513 69 77 7.0 11.0 0.00 0.00 0.00 26 1014.9
20260505220011 69 79 6.0 11.0 0.00 0.00 0.00 27 1015.0
20260505214513 68 77 5.0 10.0 0.00 0.00 0.00 27 1015.2
20260505213009 68 134 5.0 13.0 0.00 0.00 0.00 28 1015.4
20260505211507 68 154 3.0 13.0 0.00 0.00 0.00 26 1015.5
20260505210005 68 81 9.0 15.0 0.00 0.00 0.00 28 1015.7